Regional Weather Roundup
Issued by NWS Kansas City/Pleasant Hill, MO

Home | Current Version | Previous Version | Graphics & Text | Print | Product List | Glossary Off
Versions: 1 2 3 4 5 6 7 8 9 10 11 12 13 14 15 16 17 18 19 20 21 22 23 24 25 26 27

000
ASUS43 KEAX 151110
RWREAX

WEATHER ROUNDUP FOR EASTERN KANSAS AND NORTHWEST MISSOURI
NATIONAL WEATHER SERVICE KANSAS CITY/PLEASANT HILL MO
600 AM CDT TUE AUG 15 2017

KSZ040-057-103>105-MOZ028-029-037-043-151200-
...KANSAS CITY METROPOLITAN AREA...

CITY           SKY/WX    TMP DP  RH WIND       PRES   REMARKS
K.C. INTL      PTCLDY    68  67  96 S5        29.86R
K.C. DOWNTOWN  CLEAR     74  71  91 CALM      29.85R
LEES SUMMIT    CLEAR     70  69  97 S5        29.87S
OLATHE - IXD   CLEAR     68  68 100 SE7       29.87R
OLATHE - OJC   CLEAR     66  66 100 S5        29.87R FOG
LAWRENCE       CLEAR     68  68 100 E5        29.85R

$$

MOZ001>008-011>017-020>025-030>033-038>040-044>046-053-054-151200-
...NORTHERN AND CENTRAL MISSOURI...

CITY           SKY/WX    TMP DP  RH WIND       PRES   REMARKS
ST. JOSEPH     PTCLDY    65  65 100 SE5       29.85S
MOSBY          SUNNY     68  66  94 CALM      29.86S
WARRENSBURG    CLEAR     64  64 100 SE5       29.87S FOG
WHITEMAN AFB   PTCLDY    66  66 100 S3        29.87R FOG
CLINTON        FOG       64  64 100 CALM      29.88S VSB<1/4
SEDALIA        CLEAR     67  67 100 CALM      29.89S
WARSAW         NOT AVBL
CHILLICOTHE      N/A     67  67 100 CALM      29.87F
KIRKSVILLE     CLOUDY    68  67  96 SW3       29.88S

$$

MOZ041-047>049-056>058-063>065-088>090-097-151200-
...EASTERN AND SOUTHERN MISSOURI...

CITY           SKY/WX    TMP DP  RH WIND       PRES   REMARKS
ST. LOUIS INTL PTCLDY    72  70  93 CALM      29.90R
SPIRIT OF STL  FOG       64  64 100 CALM      29.89R VSB 1/2
COLUMBIA       FOG       67  66  97 S5        29.89S VSB 1/2
JEFFERSON CITY FOG       66  66 100 SE5       29.89R VSB 1/2
ROLLA          CLEAR     66  66 100 S3        29.91S
OSAGE BEACH    CLEAR     67  66  97 CALM      29.90S
SPRINGFIELD    CLEAR     69  69 100 S3        29.88F
BRANSON        CLOUDY    66  66 100 CALM      29.90R FOG
JOPLIN         CLEAR     69  69 100 CALM      29.87F
WEST PLAINS    FOG       64  64 100 CALM      29.92S VSB 1/4

$$

IAZ060-094-KSZ022-034>040-054-083-096-NEZ052-066-093-151200-
...KANSAS...SOUTHEAST NEBRASKA AND IOWA...

CITY           SKY/WX    TMP DP  RH WIND       PRES   REMARKS
TOPEKA         CLEAR     69  69 100 CALM      29.85R
MANHATTAN      PTCLDY    70  69  97 N3        29.82S
EMPORIA        PTCLDY    69  68  96 S9        29.85S
CHANUTE        CLOUDY    69  69 100 SE6       29.87S FOG
WICHITA        MOCLDY    72  71  97 SE8       29.84S
OMAHA          CLOUDY    69  62  78 E8        29.86S
LINCOLN        CLOUDY    69  66  90 E6        29.84S
FALLS CITY     CLOUDY    68  67  96 SE3       29.84R FOG
LAMONI         CLOUDY    67  67 100 NE3       29.87S FOG
DES MOINES     MOCLDY    67  64  90 E5        29.87R

$$





USA.gov is the U.S. government's official web portal to all federal, state and local government web resources and services.